Weather History for PAHN - November, 2011

Change the Weather History Date:

Wednesday, November 9, 2011

  Actual Average Record
Temperature  
Mean Temperature 30 °F -  
Max Temperature 34 °F 36 °F 44 °F (1981)
Min Temperature 26 °F 29 °F 9 °F (1989)
Degree Days  
Heating Degree Days 35    
Moisture  
Dew Point 29 °F    
Average Humidity 93    
Maximum Humidity 100    
Minimum Humidity 82    
Precipitation  
Precipitation 0.03 in - - ()
Sea Level Pressure  
Sea Level Pressure 29.87 in    
Wind  
Wind Speed 9 mph (WNW)    
Max Wind Speed 16 mph    
Max Gust Speed 20 mph    
Visibility 8 miles    
Events Snow    
Averages and records for this station are not official NWS values.
T = Trace of Precipitation, MM = Missing Value Source: NWS Daily Summary

Daily Weather History Graph

Daily Weather History Graph

Search for Another Location

Airport or City:

Trip Planner

Search our weather history database for the weather conditions in past years. The results will help you decide how hot, cold, wet, or windy it might be!

Date:

Astronomy

Nov. 09, 2011 Rise Set
Actual Time 7:40 AM AKST 3:50 PM AKST
Civil Twilight 6:54 AM AKST 4:36 PM AKST
Nautical Twilight 6:05 AM AKST 5:25 PM AKST
Astronomical Twilight 5:17 AM AKST 6:12 PM AKST
Moon 3:01 PM AKST (11/9) 6:44 AM AKST (11/9)
Length of Visible Light 9h 41m
Length of Day
8h 09m
Waxing Gibbous, 99% of the Moon is Illuminated
Nov 9
Waxing Gibbous
Nov 10
Full
Nov 18
Last Quarter
Nov 24
New
Dec 2
First Quarter

Hourly Weather History & Observations

Time (AKST) Temp. Windchill Dew Point Humidity Pressure Visibility Wind Dir Wind Speed Gust Speed Precip Events Conditions
12:54 AM 33.1 °F 25.5 °F 32.0 °F 96% 30.07 in 3.0 mi WNW 9.2 mph - 0.01 in Snow Light Snow
1:02 AM 33.8 °F 27.0 °F 32.0 °F 93% 30.06 in 2.5 mi WNW 8.1 mph - 0.00 in Snow Light Snow
1:16 AM 33.8 °F 26.4 °F 32.0 °F 93% 30.05 in 3.0 mi WNW 9.2 mph - 0.00 in Snow Light Snow
1:54 AM 33.1 °F 26.9 °F 32.0 °F 96% 30.06 in 4.0 mi WNW 6.9 mph - 0.00 in Snow Light Snow
2:54 AM 33.1 °F 26.1 °F 32.0 °F 96% 30.04 in 5.0 mi WNW 8.1 mph - 0.01 in Snow Light Snow
3:18 AM 32.0 °F 24.2 °F 32.0 °F 100% 30.02 in 5.0 mi WNW 9.2 mph - 0.01 in Snow Light Snow
3:54 AM 32.0 °F 23.0 °F 32.0 °F 100% 30.02 in 3.0 mi WNW 11.5 mph - 0.01 in Snow Light Snow
4:54 AM 32.0 °F 24.2 °F 30.9 °F 96% 29.99 in 10.0 mi WNW 9.2 mph - 0.00 in   Overcast
5:54 AM 32.0 °F 23.6 °F 30.9 °F 96% 29.98 in 10.0 mi WNW 10.4 mph - N/A   Overcast
6:54 AM 32.0 °F 22.1 °F 30.0 °F 92% 29.96 in 10.0 mi WNW 13.8 mph - N/A   Overcast
7:54 AM 33.1 °F 23.9 °F 30.0 °F 89% 29.94 in 10.0 mi NW 12.7 mph - N/A   Overcast
8:54 AM 33.1 °F 24.4 °F 30.0 °F 89% 29.91 in 10.0 mi NW 11.5 mph - N/A   Overcast
9:54 AM 33.1 °F 24.4 °F 30.0 °F 89% 29.90 in 10.0 mi WNW 11.5 mph 19.6 mph N/A   Overcast
10:54 AM 32.0 °F 21.2 °F 30.0 °F 92% 29.87 in 10.0 mi WNW 16.1 mph - N/A   Overcast
11:54 AM 33.1 °F 24.4 °F 30.0 °F 89% 29.84 in 10.0 mi WNW 11.5 mph - N/A   Clear
12:54 PM 34.0 °F 23.8 °F 30.0 °F 85% 29.83 in 10.0 mi WNW 16.1 mph - N/A   Clear
1:54 PM 34.0 °F 25.0 °F 30.0 °F 85% 29.81 in 10.0 mi WNW 12.7 mph - N/A   Clear
2:54 PM 34.0 °F 25.0 °F 28.9 °F 82% 29.79 in 10.0 mi NW 12.7 mph - N/A   Clear
3:54 PM 32.0 °F 21.6 °F 28.9 °F 88% 29.78 in 10.0 mi WNW 15.0 mph - N/A   Clear
4:54 PM 32.0 °F 23.0 °F 28.9 °F 88% 29.78 in 10.0 mi WNW 11.5 mph - N/A   Clear
5:54 PM 30.9 °F 24.3 °F 28.9 °F 92% 29.78 in 10.0 mi WNW 6.9 mph - N/A   Clear
6:54 PM 30.0 °F 21.7 °F 28.0 °F 92% 29.77 in 10.0 mi WNW 9.2 mph - N/A   Clear
7:54 PM 28.0 °F 24.2 °F 27.0 °F 96% 29.77 in 10.0 mi NW 3.5 mph - N/A   Clear
8:54 PM 28.0 °F 21.7 °F 27.0 °F 96% 29.77 in 10.0 mi WNW 5.8 mph - N/A   Clear
9:54 PM 27.0 °F 21.6 °F 26.1 °F 96% 29.78 in 10.0 mi WNW 4.6 mph - N/A   Clear
9:59 PM 26.6 °F - 26.6 °F 100% 29.77 in 1.8 mi Calm Calm - N/A   Partly Cloudy
10:04 PM 26.6 °F - 26.6 °F 100% 29.76 in 0.8 mi Calm Calm - N/A   Mist
10:11 PM 26.6 °F - 24.8 °F 93% 29.76 in 1.2 mi Calm Calm - N/A   Partly Cloudy
10:32 PM 26.6 °F - 24.8 °F 93% 29.74 in 3.0 mi Calm Calm - N/A   Partly Cloudy
10:54 PM 26.1 °F - 25.0 °F 96% 29.75 in 10.0 mi Calm Calm - N/A   Partly Cloudy
11:30 PM 26.6 °F 21.2 °F 26.6 °F 100% 29.76 in 10.0 mi West 4.6 mph - N/A   Overcast
11:54 PM 28.0 °F 21.7 °F 27.0 °F 96% 29.76 in 10.0 mi West 5.8 mph - N/A   Overcast